C/2024 R4 ( PanSTARRS )

Japanese version
Home page
Updated on November 26, 2024

---------------------------------------------------------------------

* Profile

Discovery Date September 11, 2024
Magnitude 21.2 mag
Discoverer Pan-STARRS 1 telescope (Haleakala)

* Orbital Elements

Epoch 2024 Oct. 17.0 TT = JDT 2460600.5
T 2027 Oct. 26.62980 TT                                 Rudenko
q   4.4113599            (2000.0)            P               Q
z  -0.0006158      Peri.  108.96191     -0.33660818     -0.90999596
 +/-0.0000184      Node   345.92828     -0.38047178     +0.36659697
e   1.0027166      Incl.   95.34490     +0.86135716     -0.19368536
From 56 observations 2024 July 3-Nov. 2, mean residual 0".2.

* Finding Charts

* Magnitudes Graph

        m1 = 6.5 + 5 log d + 10.0 log r

---------------------------------------------------------------------

The orbital elements are published on M.P.E.C. 2024-V117.
The charts are made with StellaNavigator Ver.11 (AstroArts).
The magnitudes graphs are made with Comet for Windows.

---------------------------------------------------------------------

Copyright(C) Seiichi Yoshida (comet@aerith.net). All rights reserved.